DW8362 Weather Reports


time (UTC)temp
F
wind
direction
speed
knots
gust
knots
rain 1hr
in
rain 24hr
in
rain mn
in
humidity
%
barometer
mb
20260506062019 68 128 1.7 5.2 0.00 0.00 0.00 61 1007.9
20260506061520 68 147 2.6 5.2 0.00 0.00 0.00 61 1007.9
20260506061019 69 151 1.7 5.2 0.00 0.00 0.00 61 1007.9
20260506060518 69 125 1.7 6.1 0.00 0.00 0.00 60 1008.0
20260506050518 69 110 1.7 5.2 0.00 0.00 0.00 58 1008.3
20260506045017 70 125 2.6 7.8 0.00 0.00 0.00 56 1008.4
20260506044516 70 138 3.5 7.8 0.00 0.00 0.00 56 1008.3
20260506044016 70 135 3.5 7.8 0.00 0.00 0.00 56 1008.4
20260506043517 70 164 3.5 7.8 0.00 0.00 0.00 55 1008.4
20260506043016 70 138 2.6 6.1 0.00 0.00 0.00 55 1008.3
20260506042517 70 164 2.6 8.7 0.00 0.00 0.00 55 1008.2
20260506042017 70 128 3.5 8.7 0.00 0.00 0.00 54 1008.4
20260506041517 70 123 2.6 6.1 0.00 0.00 0.00 54 1008.3
20260506041017 70 158 3.5 7.8 0.00 0.00 0.00 53 1008.3
20260506040517 70 195 3.5 8.7 0.00 0.00 0.00 53 1008.3
20260506040015 70 151 3.5 8.7 0.00 0.00 0.00 53 1008.3
20260506035516 70 137 2.6 7.8 0.00 0.00 0.00 52 1008.3
20260506035015 70 137 2.6 7.8 0.00 0.00 0.00 52 1008.3
20260506034514 70 141 3.5 8.7 0.00 0.00 0.00 52 1008.1
20260506034020 70 145 1.7 5.2 0.00 0.00 0.00 51 1008.2
20260506034015 70 152 2.6 8.7 0.00 0.00 0.00 51 1008.3
20260506033633 70 154 2.6 6.1 0.00 0.00 0.00 51 1008.1
20260506032519 70 133 1.7 5.2 0.00 0.00 0.00 51 1008.2
20260506032515 70 154 2.6 6.1 0.00 0.00 0.00 51 1008.2
20260506031515 69 142 1.7 5.2 0.00 0.00 0.00 51 1008.2
20260506031015 69 117 2.6 5.2 0.00 0.00 0.00 50 1008.2
20260506030515 69 155 1.7 5.2 0.00 0.00 0.00 50 1008.1
20260506030015 69 137 1.7 4.3 0.00 0.00 0.00 49 1008.1
20260506025515 70 159 1.7 4.3 0.00 0.00 0.00 49 1008.3
20260506025013 70 137 2.6 4.3 0.00 0.00 0.00 49 1008.1
20260506024514 70 145 1.7 3.5 0.00 0.00 0.00 49 1008.2
20260506024018 70 165 2.6 5.2 0.00 0.00 0.00 48 1008.1
20260506024013 70 137 0.9 4.3 0.00 0.00 0.00 48 1008.2
20260506023018 70 99 2.6 5.2 0.00 0.00 0.00 48 1008.2
20260506023014 70 120 1.7 5.2 0.00 0.00 0.00 48 1008.1
20260506022013 70 148 1.7 3.5 0.00 0.00 0.00 48 1008.2
20260506021514 70 151 0.9 3.5 0.00 0.00 0.00 47 1008.2
20260506021013 70 140 0.9 4.3 0.00 0.00 0.00 47 1008.3
20260506020514 71 154 1.7 4.3 0.00 0.00 0.00 47 1008.2
20260506020013 71 154 0.9 3.5 0.00 0.00 0.00 47 1008.3
20260506015512 71 154 1.7 4.3 0.00 0.00 0.00 46 1008.1
20260506015012 71 130 1.7 4.3 0.00 0.00 0.00 45 1008.1
20260506014519 71 158 0.9 4.3 0.00 0.00 0.00 44 1008.0
20260506014512 71 145 1.7 4.3 0.00 0.00 0.00 45 1008.0
20260506014132 71 152 0.9 3.5 0.00 0.00 0.00 44 1008.0
20260506013012 71 147 1.7 3.5 0.00 0.00 0.00 43 1008.0
20260506012513 71 197 0.0 2.6 0.00 0.00 0.00 42 1007.9
20260506012013 72 159 0.0 2.6 0.00 0.00 0.00 41 1007.9
20260506011512 72 172 0.9 3.5 0.00 0.00 0.00 40 1007.8
20260506011013 72 131 0.9 3.5 0.00 0.00 0.00 40 1007.8
20260506010512 73 154 0.9 3.5 0.00 0.00 0.00 39 1007.7
20260506010012 73 145 1.7 3.5 0.00 0.00 0.00 38 1007.7
20260506005512 73 157 1.7 4.3 0.00 0.00 0.00 38 1007.6
20260506005020 74 142 1.7 4.3 0.00 0.00 0.00 36 1007.5
20260506005012 74 123 0.9 4.3 0.00 0.00 0.00 37 1007.6
20260506004512 74 144 1.7 3.5 0.00 0.00 0.00 36 1007.6
20260506003513 75 151 2.6 5.2 0.00 0.00 0.00 35 1007.4
20260506003011 75 149 2.6 5.2 0.00 0.00 0.00 34 1007.4
20260506002517 75 158 3.5 6.1 0.00 0.00 0.00 34 1007.2
20260506002512 75 162 1.7 6.1 0.00 0.00 0.00 34 1007.3
20260506001513 76 166 3.5 6.1 0.00 0.00 0.00 34 1007.1
20260506001014 76 104 2.6 6.1 0.00 0.00 0.00 34 1007.1
20260506001010 76 151 2.6 6.1 0.00 0.00 0.00 34 1007.0
20260506000010 76 182 4.3 6.1 0.00 0.00 0.00 34 1007.0
20260505235510 77 123 3.5 6.1 0.00 0.00 0.00 34 1007.1
20260505235011 77 96 3.5 6.1 0.00 0.00 0.00 35 1007.0
20260505234509 77 145 2.6 5.2 0.00 0.00 0.00 35 1007.0
20260505234010 77 114 2.6 5.2 0.00 0.00 0.00 35 1007.0
20260505233509 77 151 1.7 6.1 0.00 0.00 0.00 35 1006.9
20260505233010 78 154 3.5 6.1 0.00 0.00 0.00 35 1006.9
20260505232510 78 145 3.5 7.8 0.00 0.00 0.00 34 1006.9
20260505232011 78 85 3.5 11.3 0.00 0.00 0.00 34 1006.9
20260505231516 79 79 3.5 11.3 0.00 0.00 0.00 33 1006.8
20260505231510 78 125 4.3 11.3 0.00 0.00 0.00 34 1006.8
20260505230509 79 142 4.3 11.3 0.00 0.00 0.00 33 1006.8
20260505230008 79 128 5.2 11.3 0.00 0.00 0.00 33 1006.8
20260505225508 79 144 2.6 11.3 0.00 0.00 0.00 34 1006.8
20260505225008 80 168 6.1 11.3 0.00 0.00 0.00 34 1006.9
20260505224514 80 111 5.2 13.9 0.00 0.00 0.00 33 1007.0
20260505224509 80 134 4.3 13.9 0.00 0.00 0.00 34 1006.9
20260505223510 80 147 4.3 10.4 0.00 0.00 0.00 34 1006.8
20260505223007 80 148 2.6 6.1 0.00 0.00 0.00 35 1006.9
20260505222508 79 154 3.5 8.7 0.00 0.00 0.00 34 1007.0
20260505222007 80 162 3.5 8.7 0.00 0.00 0.00 34 1007.0
20260505221511 80 142 5.2 11.3 0.00 0.00 0.00 33 1006.9
20260505221507 80 148 3.5 10.4 0.00 0.00 0.00 34 1006.9
20260505220507 81 154 7.0 11.3 0.00 0.00 0.00 34 1007.0
20260505220008 81 128 5.2 10.4 0.00 0.00 0.00 33 1007.0
20260505215507 81 131 4.3 6.1 0.00 0.00 0.00 35 1006.8
20260505215009 81 148 3.5 5.2 0.00 0.00 0.00 35 1006.9
20260505214506 81 144 1.7 5.2 0.00 0.00 0.00 35 1006.9
20260505214006 81 155 3.5 6.1 0.00 0.00 0.00 35 1006.9
20260505213507 81 102 3.5 9.6 0.00 0.00 0.00 34 1006.8
20260505213007 81 154 2.6 9.6 0.00 0.00 0.00 34 1006.8
20260505212508 80 127 4.3 9.6 0.00 0.00 0.00 33 1006.8
20260505212007 80 157 2.6 12.2 0.00 0.00 0.00 34 1006.8
20260505211507 81 157 5.2 12.2 0.00 0.00 0.00 33 1006.7
20260505211007 81 162 3.5 8.7 0.00 0.00 0.00 33 1006.8
20260505210511 81 113 4.3 11.3 0.00 0.00 0.00 34 1006.8
20260505210506 81 166 4.3 10.4 0.00 0.00 0.00 33 1006.8
20260505205511 82 203 4.3 9.6 0.00 0.00 0.00 34 1006.7
20260505205506 82 176 6.1 13.0 0.00 0.00 0.00 33 1006.8
20260505205006 82 109 6.1 13.0 0.00 0.00 0.00 33 1006.7
20260505204005 82 111 5.2 9.6 0.00 0.00 0.00 35 1006.7
20260505203505 83 128 5.2 9.6 0.00 0.00 0.00 34 1006.7
20260505203006 82 142 4.3 10.4 0.00 0.00 0.00 35 1006.7
20260505202506 83 142 5.2 10.4 0.00 0.00 0.00 34 1006.8
20260505202010 84 154 5.2 9.6 0.00 0.00 0.00 33 1006.8
20260505202005 83 151 5.2 9.6 0.00 0.00 0.00 33 1006.7
20260505201007 84 180 3.5 12.2 0.00 0.00 0.00 35 1006.7
20260505200506 84 130 4.3 16.5 0.00 0.00 0.00 35 1006.7
20260505200005 84 135 7.0 16.5 0.00 0.00 0.00 34 1006.8
20260505195506 84 203 7.0 10.4 0.00 0.00 0.00 37 1006.8
20260505195014 84 171 5.2 14.8 0.00 0.00 0.00 37 1007.0
20260505195004 84 179 5.2 15.6 0.00 0.00 0.00 35 1006.8
20260505194505 84 124 7.8 15.6 0.00 0.00 0.00 35 1006.8
20260505194005 84 161 5.2 13.0 0.00 0.00 0.00 37 1006.9
20260505193503 84 182 6.1 13.0 0.00 0.00 0.00 36 1007.0
20260505192503 84 189 7.0 14.8 0.00 0.00 0.00 36 1007.1
20260505192004 83 165 6.1 13.0 0.00 0.00 0.00 36 1007.1
20260505191508 83 175 5.2 13.0 0.00 0.00 0.00 38 1007.3
20260505191504 84 157 5.2 13.0 0.00 0.00 0.00 38 1007.1
20260505190503 83 154 4.3 12.2 0.00 0.00 0.00 38 1007.3
20260505190007 84 131 4.3 7.8 0.00 0.00 0.00 38 1007.6
20260505190003 84 121 6.1 11.3 0.00 0.00 0.00 37 1007.5
20260505185617 84 140 5.2 8.7 0.00 0.00 0.00 41 1007.7
20260505184502 83 141 2.6 8.7 0.00 0.00 0.00 41 1007.7
20260505184003 83 165 6.1 12.2 0.00 0.00 0.00 40 1007.7
20260505183503 83 89 5.2 12.2 0.00 0.00 0.00 39 1007.8
20260505183002 83 228 3.5 8.7 0.00 0.00 0.00 39 1007.9
20260505182503 83 305 4.3 8.7 0.00 0.00 0.00 39 1007.9
20260505182002 83 134 4.3 11.3 0.00 0.00 0.00 40 1007.9
20260505181504 83 124 5.2 11.3 0.00 0.00 0.00 39 1008.0
20260505181001 83 188 4.3 8.7 0.00 0.00 0.00 40 1008.2
20260505180501 83 125 5.2 8.7 0.00 0.00 0.00 38 1008.2
20260505180002 83 154 4.3 8.7 0.00 0.00 0.00 40 1008.4
20260505175501 82 135 3.5 9.6 0.00 0.00 0.00 37 1008.4
20260505175005 83 157 3.5 9.6 0.00 0.00 0.00 39 1008.5
20260505175001 83 137 5.2 9.6 0.00 0.00 0.00 38 1008.5
20260505174002 83 125 5.2 9.6 0.00 0.00 0.00 39 1008.6
20260505173502 82 137 4.3 8.7 0.00 0.00 0.00 38 1008.6
20260505173006 82 121 3.5 8.7 0.00 0.00 0.00 41 1008.6
20260505173001 82 165 3.5 7.8 0.00 0.00 0.00 40 1008.6
20260505172000 82 148 5.2 9.6 0.00 0.00 0.00 40 1008.7
20260505171501 82 120 3.5 9.6 0.00 0.00 0.00 43 1008.8
20260505171001 82 137 5.2 9.6 0.00 0.00 0.00 39 1008.8
20260505170506 82 124 2.6 6.1 0.00 0.00 0.00 40 1008.9
20260505170501 82 142 5.2 9.6 0.00 0.00 0.00 38 1008.9
20260505165504 82 148 2.6 6.1 0.00 0.00 0.00 40 1009.2
20260505165500 82 172 3.5 6.1 0.00 0.00 0.00 38 1009.1
20260505164504 82 125 2.6 7.8 0.00 0.00 0.00 41 1009.3
20260505164459 82 337 3.5 7.8 0.00 0.00 0.00 42 1009.1
20260505164117 82 128 2.6 7.8 0.00 0.00 0.00 45 1009.2
20260505163000 81 157 2.6 10.4 0.00 0.00 0.00 43 1009.4
20260505162459 81 180 2.6 10.4 0.00 0.00 0.00 43 1009.3
20260505162001 81 140 2.6 7.8 0.00 0.00 0.00 45 1009.7
20260505161500 81 128 1.7 7.8 0.00 0.00 0.00 43 1009.7
20260505161004 80 157 2.6 8.7 0.00 0.00 0.00 45 1009.9
20260505161000 81 154 2.6 7.8 0.00 0.00 0.00 44 1009.7
20260505153002 80 127 1.7 7.8 0.00 0.00 0.00 42 1010.0
20260505152958 80 158 1.7 7.8 0.00 0.00 0.00 42 1010.1
20260505151959 80 140 1.7 7.8 0.00 0.00 0.00 44 1010.0
20260505151459 80 73 1.7 7.8 0.00 0.00 0.00 44 1010.0
20260505150958 79 138 0.9 11.3 0.00 0.00 0.00 45 1010.0
20260505150457 79 145 3.5 11.3 0.00 0.00 0.00 44 1010.0
20260505140501 75 148 3.5 6.1 0.00 0.00 0.00 54 1010.0
20260505140456 75 145 0.9 6.1 0.00 0.00 0.00 56 1009.9
20260505124954 65 125 1.7 2.6 0.00 0.00 0.00 71 1010.6
20260505124454 64 164 0.0 2.6 0.00 0.00 0.00 72 1010.7
20260505123955 63 142 0.9 1.7 0.00 0.00 0.00 74 1010.8
20260505123454 62 141 0.9 1.7 0.00 0.00 0.00 75 1010.8
20260505122959 60 137 0.9 3.5 0.00 0.00 0.00 77 1010.9
20260505122954 61 213 0.0 3.5 0.00 0.00 0.00 77 1010.9
20260505122000 60 145 0.9 3.5 0.00 0.00 0.00 79 1010.9
20260505121954 60 125 1.7 3.5 0.00 0.00 0.00 78 1010.8
20260505121612 59 148 0.9 3.5 0.00 0.00 0.00 80 1010.8
20260505120453 59 193 0.9 3.5 0.00 0.00 0.00 80 1010.7
20260505115954 58 159 0.0 3.5 0.00 0.00 0.00 82 1010.8
20260505115454 57 154 0.0 3.5 0.00 0.00 0.00 83 1010.7
20260505114953 56 148 0.9 2.6 0.00 0.00 0.00 85 1010.7
20260505114453 56 152 0.0 3.5 0.00 0.00 0.00 86 1010.6
20260505113957 54 144 0.0 1.7 0.00 0.00 0.00 89 1010.5
20260505113952 55 147 0.9 3.5 0.00 0.00 0.00 88 1010.6
20260505112957 53 142 0.0 0.9 0.00 0.00 0.00 91 1010.4
20260505112952 53 176 0.0 1.7 0.00 0.00 0.00 90 1010.4
20260505111953 52 207 0.0 0.9 0.00 0.00 0.00 92 1010.4
20260505111453 51 158 0.0 0.0 0.00 0.00 0.00 92 1010.3
20260505110951 51 164 0.0 0.0 0.00 0.00 0.00 92 1010.3
20260505110452 50 154 0.0 0.0 0.00 0.00 0.00 92 1010.2
20260505101949 0 0.0 0.0 0.00 0.00 0.00 1009.7
20260505101448 0 0.0 0.0 0.00 0.00 0.00 1009.7
20260505100946 0 0.0 0.0 0.00 0.00 0.00 1009.6
20260505100445 0 0.0 0.0 0.00 0.00 0.00 1009.4
20260505095945 0 0.0 0.0 0.00 0.00 0.00 1009.6
20260505095444 0 0.0 0.0 0.00 0.00 0.00 1009.6
20260505094943 0 0.0 0.0 0.00 0.00 0.00 1009.6
20260505094442 0 0.0 0.0 0.00 0.00 0.00 1009.6
20260505093941 0 0.0 0.0 0.00 0.00 0.00 1009.4
20260505093440 0 0.0 0.0 0.00 0.00 0.00 1009.6
20260505092939 0 0.0 0.0 0.00 0.00 0.00 1009.4
20260505092442 0 0.0 0.0 0.00 0.00 0.00 1009.4
20260505092438 0 0.0 0.0 0.00 0.00 0.00 1009.4
20260505091436 0 0.0 0.0 0.00 0.00 0.00 1009.4
20260505090935 0 0.0 0.0 0.00 0.00 0.00 1009.3
20260505090434 0 0.0 0.0 0.00 0.00 0.00 1009.3
20260505085933 0 0.0 0.0 0.00 0.00 0.00 1009.3
20260505085432 0 0.0 0.0 0.00 0.00 0.00 1009.1
20260505084931 54 207 0.0 0.0 0.00 0.00 0.00 100 1009.2
20260505084430 51 203 0.0 0.0 0.00 0.00 0.00 91 1009.1
20260505083929 51 203 0.0 0.0 0.00 0.00 0.00 90 1009.2
20260505083436 51 202 0.0 0.0 0.00 0.00 0.00 90 1009.3
20260505083430 51 204 0.0 0.0 0.00 0.00 0.00 90 1009.2
20260505082430 51 203 0.0 0.0 0.00 0.00 0.00 90 1009.2
20260505081930 51 203 0.0 0.0 0.00 0.00 0.00 90 1009.1
20260505081429 51 203 0.0 0.0 0.00 0.00 0.00 90 1009.1
20260505080928 51 203 0.0 0.0 0.00 0.00 0.00 90 1009.0
20260505080434 51 203 0.0 0.0 0.00 0.00 0.00 89 1009.0
20260505080428 51 204 0.0 0.0 0.00 0.00 0.00 90 1009.0
20260505075928 51 204 0.0 0.0 0.00 0.00 0.00 90 1009.0
20260505074928 51 203 0.0 0.0 0.00 0.00 0.00 89 1009.0
20260505074428 51 202 0.0 0.0 0.00 0.00 0.00 89 1008.8
20260505073928 51 203 0.0 0.0 0.00 0.00 0.00 88 1008.7
20260505073427 51 203 0.0 0.0 0.00 0.00 0.00 88 1008.8
20260505072927 52 203 0.0 0.0 0.00 0.00 0.00 88 1008.8
20260505072427 52 204 0.0 0.0 0.00 0.00 0.00 88 1008.8
20260505071928 53 204 0.0 0.0 0.00 0.00 0.00 88 1008.7
20260505071427 53 204 0.0 0.0 0.00 0.00 0.00 88 1008.8
20260505070927 53 204 0.0 0.0 0.00 0.00 0.00 87 1008.8